Tracking 18957 objects as of 23-Jan-2018
HD Live streaming from Space Station
objects crossing your sky now

FENGYUN 1C DEB

Track FENGYUN 1C DEB now!
10-day predictions


NORAD ID: 37454
Int'l Code: 1999-025EHY
Perigee: 585.6 km
Apogee: 650.5 km
Inclination: 99.0 °
Period: 96.9 minutes
Semi major axis: 6989 km
RCS: 0.0119 m2 (small)
Launch date: May 10, 1999
Source: People's Republic of China (PRC)
Launch site: Taiyaun Space Center, China (TSC)

Note: This is SATELLITE DEBRIS
aabbcc
Your satellite tracking list
Your tracking list is empty




NASA's NSSDC Master Catalog

Two Line Element Set (TLE):
1 37454U 99025EHY 18023.38787135  .00005528  00000-0  63023-3 0  9991
2 37454  98.9736 348.8019 0046457 109.8096 250.8132 14.85849067411402
Source of the keplerian elements: AFSPC